Regional Weather Roundup
Issued by NWS Charleston, WV

Home | Current Version | Previous Version | Text Only | Print | Product List | Glossary On
Versions: 1 2 3 4 5 6 7 8 9 10 11 12 13 14 15 16 17 18 19 20 21 22 23 24 25 26 27 28 29 30 31 32 33 34 35 36 37 38 39 40 41 42 43 44 45 46 47 48 49 50
000
ASUS41 KRLX 072010
RWRRLX
West Virginia Regional Weather Roundup
National Weather Service Charleston WV
400 PM EDT TUE JUL 07 2015

Note: "fair" indicates few or no clouds below 12,000 feet with no
significant weather and/or obstructions to visibility.

WVZ003-072100-
Northern Panhandle of West Virginia

CITY           SKY/WX    TMP DP  RH WIND       PRES   REMARKS
WHEELING       PTSUNNY   84  70  62 SW12G22   29.96F
$$

WVZ009-072100-
Northwest West Virginia

CITY           SKY/WX    TMP DP  RH WIND       PRES   REMARKS
PARKERSBURG    PTSUNNY   84  69  60 SW9G21    30.00F
$$

WVZ006-072100-
Western West Virginia

CITY           SKY/WX    TMP DP  RH WIND       PRES   REMARKS
HUNTINGTON     LGT RAIN  76  72  87 S9        30.00F
$$

WVZ015-072100-
West Central West Virginia

CITY           SKY/WX    TMP DP  RH WIND       PRES   REMARKS
CHARLESTON     MOSUNNY   87  68  52 S12       30.01F
$$

WVZ022-031-072100-
North Central West Virginia

CITY           SKY/WX    TMP DP  RH WIND       PRES   REMARKS
CLARKSBURG     MOSUNNY   81  73  76 S3        30.01F
MORGANTOWN     LGT RAIN  85  67  54 SW8       30.02S
$$

WVZ025-035-042-045-072100-
Southern West Virginia

CITY           SKY/WX    TMP DP  RH WIND       PRES   REMARKS
BECKLEY        MOSUNNY   80  63  55 SW12      30.13F
LOGAN          PTSUNNY   82  68  61 VRB6G14   30.03F
BLUEFIELD      MOSUNNY   84  65  52 SW6       30.17F
LEWISBURG      MOSUNNY   83  64  50 SW8       30.13F
$$

WVZ047-072100-
Northern Mountains of West Virginia

CITY           SKY/WX    TMP DP  RH WIND       PRES   REMARKS
ELKINS         MOSUNNY   84  63  49 VRB7      30.07F
$$

WVZ052-072100-
Eastern Panhandle of West Virginia

CITY           SKY/WX    TMP DP  RH WIND       PRES   REMARKS
MARTINSBURG    MOSUNNY   87  68  52 S8        30.00F
PETERSBURG     MOSUNNY   89  59  36 S6        30.01F
$$


USA.gov is the U.S. government's official web portal to all federal, state and local government web resources and services.